Regional Weather Roundup
Issued by NWS

Home | Current Version | Previous Version | Text Only | Print | Product List | Glossary On
Versions: 1 2 3 4 5 6 7 8 9 10 11 12 13 14 15 16 17 18 19 20 21 22 23 24 25 26 27 28 29 30 31 32 33 34 35 36 37 38 39 40 41 42 43 44 45 46 47 48 49 50
000
ASUS43 KFSD 061902
RWRSD

WEATHER ROUNDUP FOR SOUTH DAKOTA
NATIONAL WEATHER SERVICE SIOUX FALLS SD
200 PM CDT WED MAY 06 2015

NOTE: "FAIR" INDICATES FEW OR NO CLOUDS BELOW 12,000 FEET WITH NO
SIGNIFICANT WEATHER AND/OR OBSTRUCTIONS TO VISIBILITY.


SDZ001>005-009-010-012>017-062000-
NORTHWEST AND NORTH CENTRAL SOUTH DAKOTA

CITY           SKY/WX    TMP DP  RH WIND       PRES   REMARKS
BUFFALO          N/A     60  56  86 S3        29.62F
FAITH            N/A     60  54  80 SE12      29.65F
MOBRIDGE       CLOUDY    70  61  73 SE16      29.65F
$$

SDZ012>016-024>037-041>051-057-063-072>074-062000-
SOUTHWEST AND SOUTH CENTRAL SOUTH DAKOTA

CITY           SKY/WX    TMP DP  RH WIND       PRES   REMARKS
RAPID CTY ARPT PTSUNNY   63  54  72 VRB6      29.64F
PIERRE         CLOUDY    67  60  78 SE14      29.63F
CUSTER         CLOUDY    55  49  80 E7        29.69F
ELLSWORTH AFB  CLOUDY    63  55  77 VRB3      29.64F
PHILIP         HVY RAIN  64  59  83 SW7       29.61F
PINE RIDGE     CLOUDY    63  51  65 S8        29.64F
WINNER         LGT RAIN  65  59  81 SE15      29.66F
$$

SDZ004>011-016>023-039-040-062000-
NORTHEAST SOUTH DAKOTA

CITY           SKY/WX    TMP DP  RH WIND       PRES   REMARKS
ABERDEEN       RAIN      64  62  93 E10       29.73F FOG
WATERTOWN      LGT RAIN  65  60  84 E14G28    29.74F
BROOKINGS      CLOUDY    66  61  82 SE23G39   29.77F
SISSETON         N/A     63  62  97 SE16      29.77F
$$

SDZ017-020-022-023-036>040-048>070-062000-
SOUTHEAST SOUTH DAKOTA

CITY           SKY/WX    TMP DP  RH WIND       PRES   REMARKS
SIOUX FALLS    CLOUDY    66  61  84 S21G31    29.77F
HURON          CLOUDY    64  61  90 SE20G28   29.69F
MITCHELL       LGT RAIN  64  62  93 SE17G29   29.70S FOG
YANKTON        CLOUDY    64  61  88 S16G23    29.74S
$$

ABBREVIATIONS USED IN REMARKS
   TC - TEMPERATURE IN CELSIUS
  WCI - WIND CHILL INDEX
   HX - HEAT INDEX
  VSB - VISIBILITY




USA.gov is the U.S. government's official web portal to all federal, state and local government web resources and services.